Location: Newark
(36.1358°N, 115.1208°W)
Time: 18:46:09
(UTC+00:00)

S-56A Canister/Altair - Visible Passes

Search period start: 22 June 2021 00:00
Search period end: 02 July 2021 00:00
Orbit: 632 x 2500 km, 38.9° (Epoch: 21 June)

Date Brightness Start Highest point End Pass type
(mag) Time Alt. Az. Time Alt. Az. Time Alt. Az.
22 Jun 9.6 09:17:09 12° ESE 09:17:09 12° ESE 09:17:47 10° ESE visible
22 Jun 7.1 11:14:34 17° WSW 11:18:05 71° SSE 11:22:33 10° ENE visible
23 Jun 7.2 10:43:27 30° SW 10:45:37 61° SSE 10:49:58 10° ENE visible
24 Jun 7.4 10:12:19 47° SSW 10:13:08 54° SSE 10:17:27 10° E visible
25 Jun 7.8 09:41:09 45° SE 09:41:09 45° SE 09:44:59 10° E visible
25 Jun 7.4 11:39:34 10° W 11:44:12 67° N 11:48:42 10° ENE visible
26 Jun 8.6 09:09:58 29° ESE 09:09:58 29° ESE 09:12:31 10° E visible
26 Jun 7.3 11:07:22 13° W 11:11:42 72° N 11:16:07 10° ENE visible
27 Jun 9.4 08:38:44 18° E 08:38:44 18° E 08:40:04 10° E visible
27 Jun 7.3 10:36:08 24° W 10:39:11 77° NNW 10:43:37 10° ENE visible
28 Jun 10.0 08:07:29 11° E 08:07:29 11° E 08:07:38 10° E visible
28 Jun 7.3 10:04:53 42° W 10:06:39 84° NNW 10:11:10 10° ENE visible
29 Jun 7.3 09:33:36 73° WSW 09:34:07 88° SSE 09:38:46 10° ENE visible
29 Jun 7.6 11:33:11 10° W 11:37:58 62° N 11:42:23 10° E visible
30 Jun 7.7 09:02:17 66° E 09:02:17 66° E 09:06:23 10° ENE visible
30 Jun 7.6 11:00:21 10° W 11:05:26 62° N 11:09:50 10° E visible
01 Jul 8.5 08:30:55 41° E 08:30:55 41° E 08:34:01 10° ENE visible
01 Jul 7.7 10:28:18 14° W 10:32:53 63° N 10:37:20 10° E visible
